Back to catalog

STARLINK-32677

AliveCommunicationsVLEO
NORAD 63020·PAYLOAD·🇺🇸 United States

Launched Feb 15, 2025 from Cape Canaveral Space Force Station

Loading…

Next Passes (next 24 hours)

TLE

FreshSource: CelesTrak SupGP

Epoch: Sep 14, 2026, 21:29 UTC

1 63020C 25032R   26257.89562500 -.00009359  00000+0 -33899-3 0  2579
2 63020  43.0029 347.6421 0001753 268.8295 145.3696 15.27580883    16

Track STARLINK-32677 in real time with AllMySat

Download on the App Store